Location: ??
(34.9170°N, 135.5016°E)
Time: 17:40:42
(UTC+00:00)

Cosmos 1992 Rocket - Pass Details

Date: 29 October 2020
Orbit: 759 x 766 km, 74.0° (Epoch: 30 November)

Event Time Altitude Azimuth Distance (km) Brightness Sun altitude
Exits shadow 19:40:12 - 341° (NNW) 2,500 6.4 -20.3°
Reaches altitude 10° 19:40:44 10° 341° (NNW) 2,297 6.2 -20.2°
Maximum altitude 19:45:57 82° 255° (WSW) 772 3.9 -19.2°
Drops below altitude 10° 19:51:08 10° 167° (SSE) 2,287 6.7 -18.1°
Sets 19:53:30 0° 167° (SSE) 3,210 7.5 -17.6°
